Showing default

FORMOSAT 3A, 29047

Orbit data source: Space-Track

FORMOSAT 3A, 29047 is a payload satellite owned by NSPO (TW) in LEO that was launched on Sat, 15 Apr 2006 UTC via an MINOTAUR I launch vehicle from the Air Force Western Test Range (AFWTR). Payload-class satellites include a variety of spacecraft equipped with specific instruments for various scientific and technological missions. These include communications satellites like Starlink; space stations such as the ISS; scientific satellites like the Hubble; Earth observation satellites from companies like Planet Labs, Umbra, and HawkEye 360; GPS; miniature CubeSats for education and research; and military/defense satellites.

Loading next visibility...
Identifier
29047, 2006-011A
Orbit
LEO
Country
Flag of TWTW / TWN
Related business
Manufacturer
OSC
Mission
Non-operational Civil Science
Bus & Motor
MICROSTAR, Unknown motor
Mass
62 kg wet, 56 kg dry
Launch date (UTC)
2006-04-15 (20 years ago)
Launch vehicle
MINOTAUR I
Launch site
Air Force Western Test Range (AFWTR)
Object type
Payload
Rocket body
Debris
Shape & HBR
Cyl + 2 Pan, 2.1 m
Radar Cross Section
1.446 m², Medium (>0.1 m² and < 1m²)

Expand to show TLE details & history
Last TLE update: 2 days ago

TLE from 2 days ago
0 FORMOSAT 3A
1 29047U 06011A   26171.45689360  .00000317  00000-0  13352-3 0  9996
2 29047  71.9781 304.6494 0049584 233.3201 126.3376 14.31399259 54879
Epoch: 2026-06-20T10:57Z
TLE epoch observation values (Epoch: 2026-06-20T10:57:55.607Z)
Latitude
0.00007°
Longitude
-128.50352°
Altitude
810.708 km
Speed
7.437 km/s
True Right ascension
20h 18m 35s
True Declination
0° 00' 00"
Sunlit
Object was in full shadow at epoch
Visualization orbit readout
Latitude
Unknown
Longitude
Unknown
Altitude
Unknown
Speed
Unknown
Apparent Right ascension
Unknown
Apparent Declination
Unknown
Sunlit
N/A
Visualization observer readout
Local Sidereal Time
23:08:36
Azimuth
Unknown
Elevation
Unknown
Doppler factor
Unknown
Orbital elements
Apogee altitude
820.389 km
Perigee altitude
749.354 km
Semi-major axis
7,163.008 km
Eccentricity
0.00496
Inclination
71.9781°
RAAN
304.6494°
Arg. of periapsis
233.3201°
True anomaly
126.79362°
Mean anomaly
126.3376°
Eccentric anomaly
126.56578°
Mean motion
3.58014 °/min
Orbital period
100.55 mins
BSTAR
0.00013352
Loading maneuver chart data...
Computing Atmospheric mass density...
Loading historical data...
Loading historical data...
Loading historical data...
Loading historical data...
Loading historical data...
Loading historical data...
Loading historical data...

Documentation

Showing up to 5 results
|